Regional Weather Roundup
Issued by NWS Nashville, TN

Home | Current Version | Previous Version | Text Only | Print | Product List | Glossary On
Versions: 1 2 3 4 5 6 7 8 9 10 11 12 13 14 15 16 17 18 19 20 21 22 23 24 25 26 27 28 29 30 31 32 33 34 35 36 37 38 39 40 41 42 43 44 45 46 47 48 49 50
000
ASUS44 KOHX 270710
RWROHX
MIDDLE TENNESSEE HOURLY WEATHER ROUNDUP
NATIONAL WEATHER SERVICE NASHVILLE TN
200 AM CDT MON MAR 27 2017

NOTE: "FAIR" INDICATES FEW OR NO CLOUDS BELOW 12,000 FEET WITH
NO SIGNIFICANT WEATHER AND/OR OBSTRUCTIONS TO VISIBILITY.

* THESE REPORTS ARE NOT UNDER NWS QUALITY CONTROL AND MAY NOT
  REPORT WEATHER SUCH AS PRECIPITATION AND FOG.


TNZ005>011-023>034-057-059-062>066-078-080-270800
...NORTHERN MIDDLE TENNESSEE...

CITY           SKY/WX    TMP DP  RH WIND       PRES   REMARKS
CLARKSVILLE    CLOUDY    53  49  86 E3        29.96F
CROSSVILLE     CLOUDY    55  51  86 CALM      30.04F
GALLATIN       MOCLDY    57  54  88 CALM      30.01S
NASHVILLE      MOCLDY    61  54  77 SE6       29.98S
PORTLAND       MOCLDY    61  55  82 CALM      29.98F
SMYRNA         MOCLDY    56  54  93 SE5       29.99S
SPARTA         PTCLDY    55  52  88 CALM      30.00S
SPRINGFIELD    MOCLDY    57  52  82 CALM      29.96F
WEST NASHVILLE CLEAR     57  54  88 CALM      29.97S
$$
TNZ056-058-060-061-075>077-079-093>097-270800
...SOUTHERN MIDDLE TENNESSEE...

CITY           SKY/WX    TMP DP  RH WIND       PRES   REMARKS
COLUMBIA       CLEAR    N/A N/A N/A CALM      29.95F
FAYETTEVILLE   PTCLDY    61  55  82 S7        30.00S
MCMINNVILLE    CLEAR     52  52 100 CALM      30.01S
SHELBYVILLE    CLEAR     61  55  82 SE5       30.00S
TULLAHOMA      CLEAR     52  48  87 CALM      30.01S
WINCHESTER     PTCLDY    57  54  88 CALM      30.01S
$$


...KEY TO REMARKS...
VSB - VISIBILITY IN MILES
WCI - WIND CHILL INDEX
HX  - HEAT INDEX




USA.gov is the U.S. government's official web portal to all federal, state and local government web resources and services.